Regional Weather Roundup
Issued by NWS Kansas City/Pleasant Hill, MO

Home | Current Version | Previous Version | Text Only | Print | Product List | Glossary On
Versions: 1 2 3 4 5 6 7 8 9 10 11 12 13 14 15 16 17 18 19 20 21 22 23 24 25 26 27
000
ASUS43 KEAX 191310
RWREAX

WEATHER ROUNDUP FOR EASTERN KANSAS AND NORTHWEST MISSOURI
NATIONAL WEATHER SERVICE KANSAS CITY/PLEASANT HILL MO
700 AM CST MON FEB 19 2018

KSZ040-057-103>105-MOZ028-029-037-043-191400-
...KANSAS CITY METROPOLITAN AREA...

CITY           SKY/WX    TMP DP  RH WIND       PRES   REMARKS
K.C. INTL      CLOUDY    63  59  87 S21G28    29.62R
K.C. DOWNTOWN  CLOUDY    64  58  80 S16       29.64R
LEES SUMMIT    CLOUDY    61  60  97 S23G33    29.65S
OLATHE - IXD   CLOUDY    63  60  90 S17G25    29.65S
OLATHE - OJC   CLOUDY    61  59  93 S17       29.65R
LAWRENCE       CLOUDY    63  60  90 S12       29.62R

$$

MOZ001>008-011>017-020>025-030>033-038>040-044>046-053-054-191400-
...NORTHERN AND CENTRAL MISSOURI...

CITY           SKY/WX    TMP DP  RH WIND       PRES   REMARKS
ST. JOSEPH     CLOUDY    53  53 100 S3        29.59F FOG
MOSBY          CLOUDY    63  57  82 SW12G26   29.65R
WARRENSBURG    CLOUDY    63  55  77 S17G24    29.68S
WHITEMAN AFB   CLOUDY    62  57  83 S15G24    29.65S
CLINTON        CLOUDY    64  57  77 SW18G30   29.72S
SEDALIA        CLOUDY    63  58  83 S20G28    29.72S
WARSAW         NOT AVBL
CHILLICOTHE      N/A     52  51  97 SE5       29.66S
KIRKSVILLE     LGT RAIN  47  47 100 E5        29.69F VSB 1

$$

MOZ041-047>049-056>058-063>065-088>090-097-191400-
...EASTERN AND SOUTHERN MISSOURI...

CITY           SKY/WX    TMP DP  RH WIND       PRES   REMARKS
ST. LOUIS INTL CLOUDY    59  56  89 S18G25    29.82F
SPIRIT OF STL  CLOUDY    60  56  86 SW13G25   29.82S THUNDER
COLUMBIA       MOCLDY    58  54  86 S20G26    29.75R
JEFFERSON CITY CLOUDY    60  54  80 S15G26    29.77S
ROLLA          TSTM      57  56  96 S18G30    29.82F
OSAGE BEACH    CLOUDY    56  54  93 S9G18     29.79S
SPRINGFIELD    CLOUDY    57  55  93 S18       29.81S
BRANSON        TSTM      59  55  88 S13G21    29.88R
JOPLIN         LGT RAIN  60  60 100 S26G38    29.77S
WEST PLAINS    CLOUDY    55  54  96 S13G22    29.93S

$$

IAZ060-094-KSZ022-034>040-054-083-096-NEZ052-066-093-191400-
...KANSAS...SOUTHEAST NEBRASKA AND IOWA...

CITY           SKY/WX    TMP DP  RH WIND       PRES   REMARKS
TOPEKA         CLOUDY    64  60  87 S10       29.59F
MANHATTAN      CLOUDY    36  31  82 N9G20     29.70R WCI  29
EMPORIA        CLOUDY    63  59  87 S21       29.62S
CHANUTE        CLOUDY    64  60  87 S23G38    29.68S
WICHITA        CLOUDY    42  36  79 NW20      29.69R WCI  33
OMAHA          FRZ DRZL  28  26  92 N18G29    29.72R WCI  15
LINCOLN        FLURRIES  24  21  88 N21G35    29.77R WCI   9
FALLS CITY     CLOUDY    33  32  96 NW18G29   29.64R WCI  22
LAMONI         FOG       48  47  96 SE9       29.61F VSB 1/2
DES MOINES     LGT RAIN  46  44  93 SE12      29.64S

$$





USA.gov is the U.S. government's official web portal to all federal, state and local government web resources and services.